Starlink 30890

operational
NORAD ID: 58362 Int'l Des: 2023-177 Owner: SPXS Country: US Constellation: starlink
LEOCIRCULAR

关于 Starlink 30890

正在加载描述...

实时位置

正在加载3D地球...

即将过境

高度历史

Altitude vs Time

uPlot chart will show altitude changes over time

两行轨道根数

1 58362U 23177M 25341.15436961 .00001465 00000-0 12350-3 0 9994
2 58362 43.0024 134.6087 0001287 269.5901 90.4794 15.02534764114240
Epoch: Dec 7, 2025 • Age: 16 hours

当前状态

高度 562.4 km
速度 7.58 km/s
星下点 -18.06°S, 100.74°E
发射日期 Nov 18, 2023
运行时间 2 years
类型 internet

技术详情

分类 Payload
质量 730.00 kg
干质量 700.00 kg
总质量 730.00 kg
长度 0.30 m
直径 4.10 m
跨度 29.00 m
形状 Box + pan
制造商 SPXS
平台类型 Starlink V2M
阶段状态 In Orbit
所有者/国家 SPXS/US

大型星座

Loading constellations...